EHI
0 0 0 0 0 0 0 0 0 0 0 0 0 0 0 0 0 0 0 0 0 0 0 0 0 0 0 0 0 0 0 0 0 0 0 0 0 0
0 0 0 0 0 0 0 0 0 0 0 0 0 0 0 0 0 0 0 0 0 0 0 0 0 0 0 0 0 0 0 0 0 0 0 0 0 0
0 0 0 0 0 0 0 0 0 0 0 0 0 0 0 0 0 0 0 0 0 0 0 0 0 0 0 0 0 0 0 0 0 0 0 0 0 0
0 0 0 0 0 0 0 0 0 0 0 0 0 0 0 0 0 0 0 0 0 0 0 0 0 0 0 0 0 0 0 0 0 0 0 0 0 0
0 0 0 0 0 0 0 0 0 0 0 0 0 0 0 0 0 0 0 0 0 0 0 0 0 0 0 0 0 0 0 0 0 0 0 0 0 0
0 0 0 0 0 0 0 0 0 0 0 0 0 0 0 0 0 0 0 0 0 0 0 0 0 0 0 0 0 0 0 0 0 0 0 0 0 0
0 0 0 0 0 0 0 0 0 0 0 0 0 0 0 0 0 0 0 0 0 0 0 0 0 0 0 0 0 0 0 0 0 0 0 0 0 0
0 0 0 0 0 0 0 0 0 0 0 0 0 0 0 0 0 0 0 0 0 0 0 0 0 0 0 0 0 0 0 0 0 0 0 0 0 0
0 0 0 0 0 0 0 0 0 0 0 0 0 0 0 0 0 0 0 0 0 0 0 0 0 0 0 0 0 0 0 0 0 0 0 0 0 0
0 0 0 0 0 0 0 0 0 0 0 0 0 0 0 0 0 0 0 0 0 0 0 0 0 0 0 0 0 0 0 0 0 0 0 0 0 0
0 0 0 0 0 0 0 0 0 0 0 0 0 0 0 0 0 0 0 0 0 0 0 0 0 0 0 0 0 0 0 0 0 0 0 0 0 0
0 0 0 0 0 0 0 0 0 0 0 0 0 0 0 0 0 0 0 0 0 0 0 0 0 0 0 0 0 0 0 0 0 0 0 0 0 0
0 0 0 0 0 0 0 0 0 0 0 0 0 0 0 0 0 0 0 0 0 0 0 0 0 0 0 0 0 0 0 0 0 0 0 0 0 0
0 0 0 0 0 0 0 0 0 0 0 0 0 0 0 0 0 0 0 0 0 0 0 0 0 0 0 0 0 0 0 0 0 0 0 0 0 0
0 0 0 0 0 0 0 0 0 0 0 0 0 0 0 0 0 0 0 0 0 0 0 0 0 0 0 0 0 0 0 0 0 0 0 0 0 0
0 0 0 0 0 0 0 0 0 0 0 0 0 0 0 0 0 0 0 0 0 0 0 0 0 0 0 0 0 0 0 0 0 0 0 0 0 0
0 0 0 0 0 0 0 0 0 0 0 0 0 0 0 0 0 0 0 0 0 0 0 0 0 0 0 0 0 0 0 0 0 0 0 0 0 0
0 0 0 0 0 0 0 0 0 0 0 0 0 0 0 0 0 0 0 0 0 0 0 0 0 0 0 0 0 0 0 0 0 0 0 0 0 0
0 0 0 0 0 0 0 0 0 0 0 0 0 0 0 0 0 0 0 0 0 0 0 0 0 0 0 0 0 0 0 0 0 0 0 0 0 0
0 0 0 0 0 0 0 0 0 0 0 0 0 0 0 0 0 0 0 0 0 0 0 0 0 0 0 0 0 0 0 0 0 0 0 0 0 0
0 0 0 0 0 0 0 0 0 0 0 0 0 0 0 0 0 0 0 0 0 0 0 0 0 0 0 0 0 0 0 0 0 0 0 0 0 0
0 0 0 0 0 0 0 0 0 0 0 0 0 0 0 0 0 0 0 0 0 0 0 0 0 0 0 0 0 0 0 0 0 0 0 0 0 0
0 0 0 0 0 0 0 0 0 0 0 0 0 0 0 0 0 0 0 0 0 0 0 0 0 0 0 0 0 0 0 0 0 0 0 0 0 0
Wind_Speed
11 12 11 10 10 11 11 12 15 19 20 21 17 17 15 14 14 16 19 25 29 31 33 33 31 30 30 29 29 29 29 29 29 30 30 30 30 32
10 13 13 11 11 11 12 12 13 15 19 19 19 19 19 15 19 20 21 28 30 31 31 31 31 30 29 29 29 28 27 27 28 29 30 30 29 29
13 14 15 15 13 12 12 12 13 14 17 17 17 19 24 22 19 19 19 19 18 27 30 31 32 32 31 30 28 28 27 27 26 27 28 29 28 28
15 16 16 14 16 14 13 14 14 15 15 19 18 19 23 23 21 20 18 17 18 25 30 32 32 33 32 30 28 27 26 25 25 25 25 26 26 27
16 16 17 17 17 14 16 15 13 14 15 17 19 17 17 18 20 19 21 18 18 20 26 27 29 30 29 30 29 28 26 24 23 22 21 21 22 24
16 16 16 16 17 18 16 16 15 17 17 16 16 16 17 19 18 17 17 16 16 16 20 22 26 29 29 29 28 25 23 22 22 21 18 17 18 20
17 16 16 18 21 19 16 17 18 16 16 16 16 17 17 17 17 16 18 17 17 16 16 16 16 15 16 20 21 21 22 22 22 22 21 20 18 19
17 17 17 17 19 24 26 26 25 21 19 18 17 19 21 20 18 17 17 18 18 14 15 16 15 15 15 14 21 25 25 25 25 24 23 22 20 19
17 16 15 15 21 18 23 27 25 27 26 21 21 21 22 21 21 22 20 20 20 17 16 17 15 15 14 15 25 28 28 26 25 24 23 22 21 21
16 17 18 19 18 22 22 23 22 20 22 19 19 21 21 21 21 22 22 21 21 17 15 15 14 14 14 14 22 27 27 25 23 23 23 22 20 20
16 17 19 19 24 29 25 24 23 20 21 27 30 29 31 31 25 17 17 16 17 14 10 12 14 14 14 14 17 23 22 21 21 22 22 21 19 18
15 16 20 22 27 31 25 23 23 22 22 23 23 22 21 21 24 18 14 14 16 14 10 10 12 11 11 9 9 9 10 15 18 18 18 16 13 8
15 15 15 25 31 33 30 21 24 26 21 20 17 16 16 14 14 14 14 14 15 15 12 11 11 11 10 11 11 11 10 9 8 6 6 8 11 11
16 15 17 29 33 32 24 24 30 27 15 14 15 15 14 14 14 15 17 17 16 18 16 13 11 10 11 12 11 8 7 7 4 1 5 12 14 18
16 23 28 31 28 21 22 28 24 15 14 15 15 15 14 15 16 15 16 16 16 15 12 10 9 9 9 10 10 8 7 5 3 4 8 8 9 10
16 20 26 24 20 21 21 17 13 14 15 14 15 15 15 14 14 14 14 13 12 10 5 4 6 8 9 10 9 7 4 4 2 6 9 10 9 9
20 15 14 14 14 14 14 14 14 14 14 14 15 15 15 15 14 13 12 11 10 8 5 2 3 5 5 5 3 2 1 1 2 7 10 11 10 9
21 13 13 14 14 15 15 15 15 14 14 14 14 14 15 14 14 12 10 9 7 5 5 5 5 4 3 3 11 4 3 3 5 8 10 12 11 9
14 12 13 14 14 14 15 15 15 15 15 14 14 14 14 13 12 11 9 7 5 5 5 5 6 5 2 3 7 13 5 5 9 10 10 11 10 8
11 12 13 14 14 14 15 15 15 15 14 14 14 13 13 11 10 10 8 8 6 5 5 5 6 6 5 4 4 7 13 7 9 12 11 10 9 12
12 13 13 14 14 14 14 15 15 15 15 14 13 13 11 10 9 9 8 10 7 5 5 5 5 6 4 2 4 6 10 14 12 9 10 10 8 6
13 14 14 14 14 14 14 14 14 14 15 13 12 11 10 9 9 9 8 7 6 5 5 4 4 3 2 5 7 8 9 11 16 20 16 9 5 6
13 14 14 14 14 13 13 15 17 14 13 12 11 11 10 9 8 7 7 6 5 5 4 3 4 5 5 6 7 8 10 9 8 9 10 12 12 13
Wind_Direction
311 308 304 301 300 300 298 297 298 299 299 302 303 302 301 296 298 298 296 296 298 297 294 291 289 289 290 289 288 286 283 279 273 269 269 268 262 251
308 305 303 300 302 299 296 293 289 288 291 296 300 300 301 298 297 295 291 291 290 287 287 288 288 288 289 289 288 286 284 281 277 270 264 262 260 255
307 305 303 303 301 299 297 292 290 289 288 292 295 299 302 299 295 292 290 289 287 287 289 289 289 288 287 286 286 285 284 283 281 275 268 262 257 253
307 306 304 304 302 300 297 296 294 292 292 295 296 297 297 299 298 297 295 290 288 289 288 286 283 283 283 284 284 285 284 283 281 278 272 265 259 253
306 305 304 304 302 302 302 299 298 299 297 294 293 295 295 297 301 298 295 292 290 289 288 286 283 282 283 285 285 283 282 279 277 276 273 269 263 258
304 303 303 303 304 306 302 302 303 302 297 294 295 297 297 298 297 296 296 293 291 291 288 285 282 282 282 282 282 280 277 276 276 275 273 270 263 257
304 304 303 303 300 300 301 304 304 299 298 298 299 300 298 299 299 299 294 295 291 289 288 284 283 282 285 286 285 279 275 273 273 272 272 270 265 257
307 307 305 303 303 304 303 302 299 298 299 301 301 300 299 299 298 296 296 294 293 291 290 288 288 285 284 282 281 281 276 272 269 266 264 263 261 257
307 307 306 305 307 305 305 304 301 297 296 299 299 298 298 298 298 295 292 291 288 288 289 285 284 283 283 282 285 283 279 274 268 264 261 260 257 253
306 305 304 306 307 309 308 306 302 300 300 301 298 296 294 294 292 291 292 289 284 281 281 285 289 288 289 286 284 281 278 275 270 265 263 259 253 250
307 305 305 305 308 312 312 308 306 306 307 305 301 297 296 297 296 293 289 288 287 288 292 289 292 294 293 289 282 280 281 281 276 269 264 257 250 246
308 306 306 308 311 314 314 311 310 311 311 308 306 304 301 297 295 290 291 293 293 294 297 293 294 301 295 286 294 303 297 290 283 272 261 249 229 211
310 310 310 313 315 316 317 312 310 312 310 308 307 304 300 297 297 295 292 289 289 288 294 294 288 285 280 290 297 293 292 292 293 279 235 187 165 151
309 309 311 315 317 319 318 313 315 316 309 306 303 302 303 303 301 298 292 286 279 279 283 281 277 278 281 284 286 290 297 299 299 76 98 113 115 118
308 310 313 316 319 318 315 317 318 313 309 306 305 305 304 301 299 295 292 286 280 275 271 265 268 275 272 272 277 288 302 314 331 96 96 94 95 101
313 314 316 317 318 317 317 317 315 310 309 306 305 304 303 301 300 299 297 296 293 293 270 234 261 278 276 269 269 277 289 306 1 93 96 90 84 85
320 317 317 320 319 318 317 316 315 313 313 310 308 307 306 305 303 303 299 298 300 310 320 304 279 283 323 338 299 296 313 335 72 100 100 95 85 85
324 318 318 318 318 319 318 316 315 314 314 312 309 308 308 307 307 309 310 313 321 334 343 339 323 280 226 58 23 22 47 59 84 93 102 104 94 87
321 317 316 317 317 316 314 313 312 313 312 310 310 310 309 309 313 319 327 334 341 348 354 354 348 330 349 66 32 19 36 82 91 89 90 97 99 102
319 317 316 316 315 313 312 311 311 312 312 312 311 310 311 314 322 330 336 344 343 346 355 7 11 6 13 21 40 27 31 66 92 94 93 87 80 94
318 317 316 314 312 311 311 310 310 310 311 312 311 313 315 320 327 331 334 342 347 348 354 0 352 333 303 336 67 48 43 55 73 92 102 100 94 97
318 316 315 312 312 311 311 311 311 311 312 312 313 314 318 323 325 328 332 335 340 343 342 351 358 356 20 75 82 76 70 71 72 73 68 72 105 130
317 316 313 312 311 311 311 312 312 310 311 311 313 315 320 321 322 323 325 328 333 343 349 13 42 57 68 84 92 92 91 87 85 80 67 62 79 97